Waterloo, IA

5:21 PM CDT on October 19, 2017 (GMT -0500)
Waterloo Municipal

Weather History for KALO - April, 2014

Change the Weather History Date:

Sunday, April 13, 2014

  Actual Average Record
Temperature  
Mean Temperature 45 °F 48 °F  
Max Temperature 56 °F 60 °F 88 °F (1916)
Min Temperature 33 °F 36 °F 18 °F (1950)
Degree Days  
Heating Degree Days 20 17  
Month to date heating degree days 256 257  
Since 1 July heating degree days 7796 6582  
Cooling Degree Days 0 0  
Month to date cooling degree days 1 0  
Year to date cooling degree days 1 0  
Moisture  
Dew Point 45 °F    
Average Humidity 93    
Maximum Humidity 100    
Minimum Humidity 86    
Precipitation  
Precipitation 1.70 in 0.13 in 1.70 in (2014)
Month to date precipitation 4.59 1.39  
Year to date precipitation 8.72 5.27  
Snow  
Snow T in 0.10 in 1.50 in (1952)
Month to date snowfall T 1.2  
Since 1 July snowfall 57.6 34.7  
Snow Depth 0.00 in    
Sea Level Pressure  
Sea Level Pressure 29.65 in    
Wind  
Wind Speed 17 mph (NNE)    
Max Wind Speed 36 mph    
Max Gust Speed 45 mph    
Visibility 4 miles    
Events Fog , Rain    
T = Trace of Precipitation, MM = Missing Value Source: NWS Daily Summary

Daily Weather History Graph

Daily Weather History Graph

Search for Another Location

Airport or City:

Trip Planner

Search our weather history database for the weather conditions in past years. The results will help you decide how hot, cold, wet, or windy it might be!

Date:

Astronomy

Apr. 13, 2014 Rise Set
Actual Time 6:31 AM CDT 7:49 PM CDT
Civil Twilight 6:02 AM CDT 8:18 PM CDT
Nautical Twilight 5:27 AM CDT 8:53 PM CDT
Astronomical Twilight 4:50 AM CDT 9:30 PM CDT
Moon 6:26 PM CDT (4/13) 5:32 AM CDT (4/13)
Length of Visible Light 14h 16m
Length of Day
13h 17m
Waxing Gibbous, 97% of the Moon is Illuminated
Apr 13
Waxing Gibbous
Apr 15
Full
Apr 22
Last Quarter
Apr 29
New
May 6
First Quarter

Hourly Weather History & Observations

Time (CDT) Temp. Windchill Dew Point Humidity Pressure Visibility Wind Dir Wind Speed Gust Speed Precip Events Conditions
12:03 AM 53.1 °F - 52.0 °F 96% 29.65 in 4.0 mi WNW 11.5 mph - 0.02 in Rain Light Rain
12:13 AM 52.0 °F - 51.1 °F 97% 29.63 in 3.0 mi NNW 5.8 mph - 0.05 in Rain Rain
12:25 AM 52.0 °F - 51.1 °F 97% 29.61 in 2.0 mi East 3.5 mph - 0.10 in Rain Rain
12:54 AM 53.1 °F - 52.0 °F 96% 29.59 in 2.5 mi SSE 11.5 mph - 0.19 in Rain Light Rain
1:02 AM 53.1 °F - 52.0 °F 96% 29.59 in 3.0 mi SE 10.4 mph - 0.01 in Rain Light Rain
1:39 AM 55.0 °F - 54.0 °F 96% 29.62 in 5.0 mi SSE 17.3 mph 28.8 mph 0.05 in Rain Light Rain
1:47 AM 55.0 °F - 54.0 °F 96% 29.69 in 6.0 mi West 16.1 mph 25.3 mph 0.05 in Rain Light Rain
1:54 AM 54.0 °F - 53.1 °F 97% 29.69 in 6.0 mi WNW 12.7 mph 21.9 mph 0.06 in Rain Light Rain
2:54 AM 55.9 °F - 54.0 °F 93% 29.66 in 10.0 mi NNE 5.8 mph - 0.07 in   Overcast
3:54 AM 53.1 °F - 52.0 °F 96% 29.63 in 6.0 mi NNE 12.7 mph - N/A   Overcast
4:54 AM 54.0 °F - 53.1 °F 97% 29.63 in 7.0 mi North 6.9 mph - N/A   Overcast
5:42 AM 50.0 °F - 48.9 °F 96% 29.66 in 4.0 mi North 8.1 mph - N/A   Overcast
5:54 AM 50.0 °F - 48.9 °F 96% 29.65 in 4.0 mi North 9.2 mph - N/A   Overcast
6:01 AM 48.9 °F - 48.0 °F 97% 29.65 in 4.0 mi North 9.2 mph - N/A   Overcast
6:30 AM 48.9 °F - 48.0 °F 97% 29.68 in 3.0 mi NNE 6.9 mph - N/A   Overcast
6:37 AM 48.9 °F - 48.0 °F 97% 29.69 in 2.5 mi NNE 6.9 mph - N/A   Overcast
6:54 AM 48.0 °F - 46.9 °F 96% 29.68 in 2.0 mi NNE 12.7 mph - N/A   Overcast
7:03 AM 48.0 °F - 46.9 °F 96% 29.68 in 1.5 mi NNE 12.7 mph - N/A   Overcast
7:30 AM 46.9 °F - 46.9 °F 100% 29.70 in 0.8 mi North 11.5 mph - N/A   Overcast
7:54 AM 46.0 °F 39.9 °F 46.0 °F 100% 29.70 in 0.5 mi NNE 13.8 mph - N/A Fog Fog
8:14 AM 46.0 °F 40.2 °F 45.0 °F 96% 29.71 in 1.0 mi NNE 12.7 mph - N/A   Overcast
8:31 AM 46.0 °F 39.6 °F 45.0 °F 96% 29.70 in 0.8 mi North 15.0 mph - N/A   Overcast
8:42 AM 46.0 °F 39.3 °F 45.0 °F 96% 29.69 in 1.0 mi NNE 16.1 mph - N/A   Overcast
8:54 AM 46.0 °F 40.2 °F 45.0 °F 96% 29.71 in 1.0 mi North 12.7 mph - N/A   Overcast
9:54 AM 46.0 °F 41.4 °F 45.0 °F 96% 29.73 in 1.2 mi North 9.2 mph 19.6 mph N/A   Overcast
10:18 AM 45.0 °F 38.9 °F 45.0 °F 100% 29.72 in 2.0 mi NNE 12.7 mph - N/A   Overcast
10:54 AM 45.0 °F 39.3 °F 44.1 °F 97% 29.73 in 3.0 mi NNE 11.5 mph - N/A   Overcast
11:21 AM 45.0 °F 38.9 °F 44.1 °F 97% 29.73 in 2.0 mi NNE 12.7 mph - 0.05 in Rain Rain
11:28 AM 45.0 °F 38.2 °F 44.1 °F 97% 29.72 in 1.8 mi NE 15.0 mph - 0.08 in Rain Rain
11:40 AM 45.0 °F 38.5 °F 44.1 °F 97% 29.71 in 1.5 mi NNE 13.8 mph 24.2 mph 0.14 in Rain Rain
11:45 AM 45.0 °F 38.2 °F 44.1 °F 97% 29.70 in 1.8 mi NE 15.0 mph 23.0 mph 0.17 in Rain Rain
11:54 AM 45.0 °F 38.2 °F 44.1 °F 97% 29.70 in 2.0 mi NE 15.0 mph - 0.22 in Rain Rain
12:03 PM 45.0 °F 37.6 °F 44.1 °F 97% 29.68 in 2.5 mi NE 17.3 mph - 0.05 in Rain Rain
12:16 PM 45.0 °F 38.2 °F 44.1 °F 97% 29.67 in 3.0 mi NE 15.0 mph 24.2 mph 0.11 in Rain Rain
12:54 PM 45.0 °F 38.5 °F 44.1 °F 97% 29.68 in 4.0 mi NNE 13.8 mph - 0.19 in Rain Light Rain
1:54 PM 46.0 °F 41.0 °F 44.1 °F 93% 29.67 in 3.0 mi NE 10.4 mph - 0.20 in Rain Rain
2:46 PM 44.6 °F 36.9 °F 42.8 °F 93% 29.64 in 2.0 mi North 18.4 mph - N/A Rain Rain
2:54 PM 45.0 °F 37.1 °F 43.0 °F 93% 29.63 in 2.5 mi North 19.6 mph - 0.25 in Rain Rain
3:24 PM 45.0 °F 37.1 °F 43.0 °F 93% 29.62 in 3.0 mi North 19.6 mph - 0.12 in Rain Rain
3:54 PM 45.0 °F 37.9 °F 43.0 °F 93% 29.61 in 3.0 mi NNE 16.1 mph - 0.21 in Rain Rain
4:02 PM 45.0 °F 36.9 °F 43.0 °F 93% 29.60 in 2.5 mi NNE 20.7 mph 26.5 mph 0.04 in Rain Rain
4:15 PM 44.1 °F 35.4 °F 43.0 °F 96% 29.59 in 3.0 mi NNE 21.9 mph 31.1 mph 0.09 in Rain Rain
4:51 PM 44.6 °F 36.4 °F 42.8 °F 93% 29.56 in 7.0 mi NNE 20.7 mph 33.4 mph 0.16 in Rain Light Rain
4:54 PM 45.0 °F 37.6 °F 43.0 °F 93% 29.57 in 8.0 mi NNE 17.3 mph 29.9 mph 0.16 in Rain Light Rain
5:54 PM 44.1 °F 34.6 °F 42.1 °F 93% 29.57 in 5.0 mi NNE 26.5 mph 34.5 mph 0.09 in Rain Light Rain
6:54 PM 43.0 °F 33.5 °F 41.0 °F 93% 29.57 in 4.0 mi North 24.2 mph 38.0 mph 0.11 in Rain Rain
7:54 PM 42.1 °F 31.7 °F 39.0 °F 89% 29.60 in 7.0 mi North 27.6 mph 38.0 mph 0.07 in Rain Light Rain
8:54 PM 41.0 °F 30.5 °F 37.9 °F 89% 29.61 in 9.0 mi North 26.5 mph 36.8 mph 0.02 in Rain Light Rain
9:54 PM 39.0 °F 28.5 °F 37.0 °F 93% 29.64 in 8.0 mi North 23.0 mph 33.4 mph 0.04 in Rain Light Rain
10:54 PM 37.0 °F 24.9 °F 35.1 °F 93% 29.63 in 10.0 mi North 27.6 mph 38.0 mph 0.00 in Rain Light Rain
11:39 PM 36.0 °F 23.5 °F 34.0 °F 93% 29.61 in 10.0 mi North 27.6 mph 39.1 mph 0.00 in   Overcast
11:54 PM 36.0 °F 23.5 °F 33.1 °F 89% 29.64 in 10.0 mi North 27.6 mph 40.3 mph 0.00 in   Overcast